Home   Weather   Vincennes   Past weeks
Flag for USA

Past Weather in Vincennes, Indiana, USA — Yesterday and Last 2 Weeks

Now
78 °F

Thundershowers. Mostly cloudy.


Feels Like: 81 °F
Forecast: 89 / 74 °F
Wind: No wind

Location: Lawrenceville-Vincennes International Airport

Current Time: Jul 16, 2019 at 8:57:27 pm

Latest Report: Jul 16, 2019 at 7:53 pm


Visibility: 10 mi

Pressure: 29.87 "Hg

Humidity: 100%

Dew Point: 78 °F

Location of VincennesLocation

Past Weather in Vincennes — Graph

°F

Vincennes Temperature Yesterday

Maximum temperature yesterday: 81 °F (at 10:53 am)
Minimum temperature yesterday: 69 °F (at 5:53 am)
Average temperature yesterday: 76 °F

High & Low Weather Summary for the Past Weeks

 TemperatureHumidityPressure
High94 °F (Jul 10, 3:53 pm)100% (Jul 3, 11:53 pm)30.14 "Hg (Jul 3, 11:53 pm)
Low62 °F (Jul 13, 5:53 am)38% (Jul 13, 3:53 pm)29.86 "Hg (Jul 3, 3:53 pm)
Average79 °F79%29.98 "Hg
* Reported Jul 1 7:53 pm — Jul 16 7:33 pm, Vincennes. Weather by CustomWeather, © 2019

Note: Actual official high and low records may vary slightly from our data, if they occured in-between our weather recording intervals... More about our weather records

Advertising

Vincennes Weather History for the Previous 24 Hours

Scroll right to see more
 ConditionsComfort  
Time TempWeatherWind HumidityBarometerVisibility
7:33 pm
Tue, Jul 16
77 °FLight rain. Cloudy.3 mph100%29.88 "Hg9 mi
7:19 pm77 °FLight rain. Mostly cloudy.3 mph100%29.89 "Hg9 mi
7:05 pm77 °FRain. Fog.7 mph96%29.89 "Hg4 mi
6:53 pm77 °FLight rain. Cloudy.6 mph96%29.87 "Hg10 mi
6:28 pm76 °FThunderstorms. Fog.8 mph100%29.89 "Hg2 mi
6:23 pm76 °FStrong thunderstorms. Fog.8 mph100%29.89 "Hg2 mi
5:53 pm76 °FCloudy.16 mph97%29.86 "Hg10 mi
5:33 pm75 °FHeavy rain. Fog.20 mph96%29.89 "Hg1 mi
5:23 pm76 °FLight rain. Fog.12 mph97%29.89 "Hg2 mi
3:53 pm83 °FPartly sunny.14 mph77%29.89 "Hg10 mi
3:21 pm82 °FCloudy.21 mph77%29.92 "Hg10 mi
3:10 pm82 °FBroken clouds.21 mph79%29.92 "Hg10 mi
2:53 pm79 °FScattered clouds.18 mph88%29.91 "Hg10 mi
2:12 pm78 °FPassing clouds.13 mph87%29.94 "Hg10 mi
1:53 pm77 °FThundershowers. Fog.12 mph94%29.93 "Hg4 mi
1:44 pm77 °FHeavy rain. Fog.10 mph94%29.96 "Hg1 mi
1:37 pm78 °FHeavy rain. Fog.13 mph90%29.95 "Hg1 mi
1:06 pm81 °FLight rain. Mostly cloudy.13 mph82%29.95 "Hg8 mi
12:53 pm83 °FThundershowers. Mostly cloudy.14 mph74%29.94 "Hg10 mi
11:53 am82 °FBroken clouds.16 mph72%29.95 "Hg10 mi
11:27 am82 °FMostly cloudy.17 mph72%29.96 "Hg10 mi
10:53 am81 °FPartly sunny.17 mph77%29.95 "Hg10 mi
10:24 am81 °FPartly sunny.22 mph74%29.96 "Hg10 mi
10:01 am80 °FScattered clouds.18 mph79%29.97 "Hg10 mi
9:06 am78 °FPartly sunny.14 mph84%29.98 "Hg10 mi
8:29 am77 °FPassing clouds.10 mph85%29.98 "Hg10 mi
7:53 am76 °FMostly cloudy.10 mph85%29.96 "Hg10 mi
6:53 am75 °FMostly cloudy.10 mph88%29.95 "Hg10 mi
6:19 am75 °FPassing clouds.10 mph88%29.96 "Hg10 mi
5:53 am75 °FMostly cloudy.12 mph85%29.94 "Hg10 mi
4:53 am75 °FPartly cloudy.9 mph88%29.94 "Hg10 mi
3:53 am75 °FClear.8 mph88%29.96 "Hg10 mi
2:53 am75 °FPartly cloudy.9 mph88%29.97 "Hg10 mi
1:53 am76 °FPassing clouds.10 mph85%29.99 "Hg10 mi
12:53 am76 °FMostly cloudy.9 mph85%29.99 "Hg10 mi
11:53 pm
Mon, Jul 15
75 °FPassing clouds.9 mph88%29.98 "Hg10 mi
10:53 pm76 °FOvercast.12 mph82%29.99 "Hg10 mi
9:53 pm76 °FOvercast.9 mph80%29.99 "Hg10 mi
8:53 pm76 °FSunny.8 mph77%29.99 "Hg10 mi
Weather by CustomWeather, © 2019

See weather overview

LIVE PARTIAL LUNAR ECLIPSE – Watch the eclipse as it happens